Temperature
16 16 16 16 16 16 16 16 16 16 16 16 16 16 16 16 15 15 15 15 15 15 15 15 15 15 15 15 15 15 15 15 15 15 15 16 16 16 16 16 16 16 16
16 16 16 16 16 16 16 16 16 16 16 16 16 16 16 15 15 15 15 15 15 15 15 15 15 15 15 15 15 15 15 15 15 15 15 15 15 16 16 16 15 16 16
16 16 16 16 16 16 16 16 16 16 16 16 16 16 15 15 15 15 15 15 15 15 15 15 15 15 14 14 15 15 15 15 15 15 15 15 15 15 15 15 15 15 15
16 16 16 16 16 16 16 16 16 16 16 16 16 16 15 15 15 15 15 15 15 15 15 15 15 15 14 14 14 14 15 15 15 15 15 15 15 15 15 15 15 15 15
17 17 16 16 16 16 16 16 16 16 16 16 16 15 15 15 15 15 15 15 15 14 14 14 14 14 14 14 14 14 14 14 15 15 15 15 15 15 15 15 15 15 15
17 16 16 16 16 16 16 16 16 16 16 16 16 15 15 15 15 15 15 15 14 14 14 14 14 14 14 14 14 14 14 14 14 14 14 14 14 14 14 14 14 14 14
16 16 16 16 16 16 16 16 16 16 16 16 16 15 15 15 15 15 15 15 14 14 14 14 14 14 14 14 14 14 14 14 14 14 14 14 14 14 14 14 14 14 14
16 16 16 16 16 16 16 16 16 16 16 15 15 15 15 15 15 15 15 14 14 14 14 14 14 14 14 14 14 14 14 14 14 13 13 14 14 14 14 13 13 13 13
16 16 16 16 16 16 16 16 16 16 16 15 15 15 15 15 15 14 14 14 14 14 14 14 14 14 14 14 14 13 13 13 13 13 13 13 13 13 13 13 13 13 13
16 16 16 16 16 16 16 16 16 16 16 15 15 15 15 15 15 14 14 14 14 14 14 14 13 13 13 13 13 13 13 13 13 13 13 13 13 13 13 13 13 13 13
16 16 16 16 16 16 16 16 16 16 15 15 15 15 15 15 15 15 14 14 14 14 14 13 13 13 13 13 13 13 13 13 13 13 13 13 13 13 13 13 13 13 13
16 16 16 16 16 16 16 15 15 15 15 15 15 15 15 15 15 15 14 14 14 14 13 13 13 13 13 13 13 13 13 13 13 13 13 13 13 13 13 13 12 12 12
16 16 16 16 16 16 15 15 15 15 15 15 15 15 15 15 15 14 14 14 13 13 13 13 13 13 13 13 12 12 12 12 12 12 13 13 13 13 13 13 12 12 12
16 16 16 16 16 15 15 15 15 15 15 15 15 14 14 14 14 14 14 14 13 13 13 13 13 13 13 12 12 12 12 12 12 12 12 12 12 12 12 12 12 12 12
16 16 16 16 16 15 15 15 15 15 15 15 14 14 14 14 14 14 14 14 13 13 12 13 13 13 12 12 12 12 12 12 12 12 12 12 12 12 12 12 12 12 12
16 16 16 16 15 15 15 15 15 15 15 14 14 14 14 14 14 14 13 13 13 13 12 12 12 12 12 12 12 12 12 12 11 11 11 11 11 11 11 11 11 11 11
16 16 16 15 15 15 15 15 15 14 14 14 14 14 14 14 13 13 13 13 13 13 12 12 12 12 12 12 12 12 12 11 11 11 11 11 11 11 11 11 11 11 11
16 16 15 15 15 15 15 15 14 14 14 14 14 14 13 13 13 13 13 13 13 12 12 12 12 12 12 12 12 12 11 11 11 11 11 11 11 11 11 11 11 10 10
16 15 15 15 15 15 15 14 14 14 14 14 14 13 13 13 13 13 13 13 12 12 12 12 12 12 12 12 11 11 11 11 11 11 11 11 10 10 10 10 10 10 10
15 15 15 15 15 15 14 14 14 14 14 13 13 13 13 13 13 13 12 12 12 12 12 12 11 11 11 11 11 11 11 11 11 11 11 10 10 10 10 10 10 10 9
15 15 15 15 14 14 14 14 14 14 13 13 13 13 13 13 13 12 12 12 12 12 11 11 11 11 11 11 11 11 11 10 10 10 10 10 10 10 10 9 9 9 9
15 15 15 15 14 14 14 14 14 13 13 13 13 13 13 12 12 12 12 12 12 11 11 11 11 11 10 10 10 10 10 10 10 10 10 10 9 9 9 9 9 9 8
15 15 15 14 14 14 14 13 13 13 13 13 13 12 12 12 12 12 12 11 11 11 11 11 10 10 10 10 10 9 9 9 9 9 9 9 9 9 9 9 8 8 8
14 14 14 14 14 13 13 13 13 13 12 12 12 12 12 12 12 11 11 11 11 10 10 10 10 10 9 9 9 9 9 9 9 8 8 8 8 8 8 8 8 8 8
14 14 14 14 13 13 13 12 12 12 12 12 12 12 11 11 11 11 11 10 10 10 10 10 10 9 9 9 9 9 8 8 8 8 7 7 7 7 8 8 7 7 7
14 14 13 13 13 13 12 12 12 12 12 12 11 11 11 11 11 10 10 10 10 10 9 9 9 9 9 9 8 8 8 7 7 7 7 6 6 6 6 6 6 6 6
Wind_Speed
2 2 1 2 2 3 4 4 4 5 5 5 6 7 6 6 6 6 6 8 9 10 10 10 10 11 11 11 11 11 10 10 10 9 9 9 8 8 6 6 5 5 5
4 3 2 2 2 3 4 4 5 4 3 4 4 5 5 5 6 6 5 6 7 9 10 10 11 11 11 12 11 11 11 10 10 9 9 8 8 7 7 6 5 5 5
5 5 3 2 2 4 5 6 6 5 4 4 4 4 4 4 4 5 5 5 6 8 9 10 11 11 11 11 12 12 11 11 11 10 9 7 7 7 7 6 6 6 6
7 5 3 3 4 5 5 4 4 4 4 3 2 2 3 3 3 4 4 4 5 6 8 10 10 11 11 11 11 11 12 11 11 11 9 8 6 6 6 6 6 6 6
7 6 4 3 5 5 3 3 3 3 2 2 2 2 2 2 2 3 3 3 4 5 6 7 9 10 10 10 10 11 11 11 12 12 10 9 7 6 5 5 5 5 5
7 7 4 4 5 4 3 3 3 3 2 1 3 3 3 2 2 3 2 3 3 4 4 5 6 6 8 9 10 10 10 10 11 11 11 9 7 6 5 4 4 5 5
6 6 4 3 3 3 3 3 3 3 2 2 4 4 4 4 3 2 2 2 2 3 4 4 4 4 5 7 8 9 10 10 10 11 11 10 8 6 5 5 4 4 5
5 5 4 3 3 3 3 3 3 2 1 2 3 3 3 4 4 3 2 2 2 3 3 3 3 3 4 4 6 8 9 10 10 10 10 9 8 7 6 5 5 5 4
5 4 4 4 3 3 3 2 3 3 2 1 2 3 3 2 2 3 3 2 2 2 1 2 3 2 3 3 4 6 8 9 9 9 9 9 8 7 6 5 5 5 5
3 4 4 4 3 3 3 2 3 2 3 1 1 1 2 4 3 1 3 3 2 2 1 2 2 2 2 2 2 4 6 8 9 10 9 9 8 7 7 6 6 6 6
2 3 4 4 3 3 3 3 3 3 2 2 1 1 2 2 2 3 0 3 3 2 1 1 1 2 2 2 2 3 5 6 7 9 9 9 8 8 7 7 6 6 6
0 1 4 4 3 3 3 3 3 3 3 3 2 2 2 2 2 2 2 1 1 2 2 1 1 1 1 1 2 3 4 5 6 8 9 9 8 8 7 7 6 6 6
1 2 2 3 2 3 3 3 3 2 2 3 2 1 1 1 2 3 3 1 0 2 2 2 1 1 1 1 1 2 3 4 6 7 8 9 8 8 8 7 6 6 6
3 3 3 3 3 4 4 3 2 2 2 2 2 2 1 1 1 3 3 3 1 2 2 2 2 1 0 1 0 1 2 4 4 6 6 7 8 7 8 8 8 7 6
3 3 3 3 3 3 3 3 2 2 2 2 1 2 1 0 1 2 2 4 4 2 1 3 2 2 1 0 1 0 1 3 3 4 5 5 6 6 6 7 7 7 7
3 4 3 3 2 2 3 3 2 2 3 2 1 2 1 1 1 1 2 2 3 4 2 2 2 2 1 1 1 1 2 3 4 3 4 4 5 5 5 6 6 7 7
4 4 4 3 3 3 3 3 3 3 3 2 1 2 1 1 1 1 1 2 2 3 3 2 1 1 1 1 2 2 3 3 3 4 3 3 3 4 4 5 5 6 6
4 4 4 3 3 3 3 4 3 3 3 2 2 2 1 2 2 1 1 1 1 2 3 2 1 1 1 1 1 2 3 3 3 4 4 3 3 4 4 4 5 5 6
3 3 3 3 3 3 3 3 4 3 3 3 3 3 2 2 1 1 1 1 1 1 2 2 1 1 1 1 2 2 3 3 4 4 4 4 4 4 5 4 4 4 5
3 3 3 3 3 3 3 3 3 3 2 2 2 2 3 3 3 2 1 1 1 2 2 1 0 1 1 2 1 1 3 3 3 4 4 4 4 5 5 5 4 5 5
3 3 3 3 2 3 3 4 4 3 3 1 0 1 2 2 3 3 2 2 3 2 2 1 0 1 2 1 2 1 2 3 3 2 2 3 3 4 4 5 5 6 6
3 3 3 3 2 2 4 5 5 3 3 2 1 1 1 0 0 1 2 3 4 4 3 2 2 2 3 2 2 1 1 1 3 2 1 3 2 3 4 4 5 6 6
3 3 3 3 3 2 4 5 6 4 3 2 2 1 0 1 0 0 0 0 1 2 4 4 4 4 3 3 2 1 1 2 3 3 1 3 3 3 4 5 6 6 6
3 3 3 3 2 2 4 5 5 4 2 1 2 2 1 1 0 1 1 0 1 1 2 2 3 3 2 2 3 2 2 1 2 2 0 2 3 3 5 5 6 6 6
3 3 3 3 3 2 3 4 4 3 2 2 1 1 1 2 1 1 2 1 1 2 1 1 1 0 1 1 1 2 1 1 2 3 1 1 2 3 3 4 5 6 6
3 3 2 2 3 3 3 4 4 3 2 1 1 1 1 1 1 2 3 3 2 2 1 1 2 2 2 2 2 1 2 1 1 2 2 1 2 2 3 3 4 6 6
Wind_Direction
128 120 94 75 66 77 87 88 85 84 86 88 97 104 103 101 96 87 78 79 77 70 68 64 61 60 61 60 55 53 52 48 43 40 39 40 43 44 48 50 51 50 49
132 121 102 89 70 77 88 94 95 92 83 85 81 91 102 106 104 95 86 79 76 74 69 66 63 61 60 57 53 50 49 44 39 36 36 37 39 40 43 45 48 47 46
124 119 107 96 86 92 90 85 82 80 75 76 70 83 99 103 110 109 100 86 74 73 71 68 63 59 58 56 53 49 45 40 36 34 31 33 38 40 41 45 46 48 49
115 109 103 93 97 95 92 87 79 75 67 70 70 61 79 97 106 127 114 102 89 75 70 67 62 59 57 54 50 46 42 36 33 30 31 33 38 42 43 47 48 50 49
108 109 101 97 98 88 76 93 77 88 85 68 80 66 56 73 92 116 116 120 108 96 85 76 68 61 56 52 48 44 39 37 33 31 33 37 43 44 45 47 48 51 52
112 109 102 94 97 88 72 78 83 66 77 72 80 62 33 35 55 80 103 123 124 119 102 88 74 60 55 51 45 40 35 36 32 30 32 35 40 41 42 46 46 51 52
115 110 107 100 100 104 109 104 93 71 45 55 70 42 22 25 35 43 67 95 116 131 119 105 89 70 55 47 42 36 31 34 32 31 31 31 34 37 42 50 51 54 54
122 121 121 117 114 108 94 93 99 92 42 56 102 89 33 2 360 18 25 73 87 100 108 113 105 88 72 58 43 36 30 31 32 30 29 28 32 38 47 53 56 56 54
122 125 126 127 124 122 125 123 123 121 115 24 85 131 133 207 308 340 2 22 41 67 80 97 114 113 95 73 51 38 31 28 28 26 24 27 35 42 47 50 54 53 51
121 134 134 132 133 129 130 139 132 130 129 115 15 58 139 152 143 338 340 355 16 42 43 82 105 122 115 100 69 42 33 28 26 24 24 29 36 47 52 52 54 55 50
116 137 142 136 136 138 142 135 124 122 128 140 139 101 77 73 100 134 265 331 354 347 8 59 94 104 115 119 95 51 37 29 27 27 28 33 41 48 50 47 51 51 47
3 134 140 136 135 139 148 145 135 131 133 129 124 122 138 136 154 140 168 232 306 318 347 5 60 84 111 95 72 48 39 30 29 29 32 37 42 45 46 45 48 47 41
198 199 143 139 138 144 146 136 130 126 135 132 137 140 142 166 160 147 143 166 216 317 341 342 338 7 132 116 54 39 32 30 29 28 31 34 37 39 41 40 40 38 32
200 187 161 150 144 141 137 125 122 135 126 137 142 141 126 150 143 148 155 147 108 360 354 312 324 333 242 164 296 49 26 25 28 27 29 31 30 33 38 38 35 30 25
186 165 157 157 149 139 138 132 127 136 119 121 137 124 117 114 114 128 138 147 147 158 290 292 310 310 300 249 310 45 357 7 15 19 22 27 26 28 32 32 28 25 23
171 156 159 156 147 140 135 131 129 128 116 110 116 109 92 89 113 101 120 127 134 154 192 263 260 283 329 5 330 325 313 339 350 357 6 16 21 24 24 23 21 20 18
165 163 164 155 155 157 146 134 146 139 134 124 105 118 116 111 103 86 99 109 120 133 156 273 301 325 351 339 347 339 329 326 333 343 348 353 8 15 12 11 16 15 14
162 160 154 149 160 164 155 149 157 150 151 155 158 134 152 122 103 98 102 107 131 145 151 201 304 339 306 284 323 336 347 331 322 328 331 328 330 341 351 0 10 10 8
154 149 148 153 162 162 157 165 159 152 155 163 167 164 184 146 146 153 135 125 132 123 130 152 253 308 316 324 342 342 351 347 336 325 322 321 321 327 335 338 345 352 355
146 145 147 158 160 149 144 149 147 147 145 157 180 180 182 175 188 191 176 183 155 128 119 124 255 306 312 317 13 321 330 324 323 339 342 337 329 328 331 334 338 338 332
146 140 128 122 132 140 148 149 152 149 148 152 202 229 206 185 189 183 175 179 160 155 148 151 235 326 316 318 286 269 297 313 312 330 334 343 350 348 333 319 321 325 322
140 128 136 137 133 140 134 138 143 149 148 154 181 299 306 313 197 184 184 170 163 169 186 186 211 230 260 258 266 272 284 332 309 312 334 311 334 304 320 316 311 314 312
145 139 147 145 149 166 142 137 138 143 151 168 184 190 14 20 31 182 314 254 197 196 183 182 197 224 231 236 216 244 237 231 258 281 325 299 310 296 311 313 315 316 315
155 160 163 164 160 174 154 147 146 142 145 180 199 196 193 250 190 151 149 90 305 296 220 179 192 220 228 222 203 206 216 243 289 307 359 277 298 292 310 320 316 321 318
157 165 166 165 166 199 174 164 149 153 163 219 232 204 198 226 244 150 140 167 300 313 7 119 167 217 347 23 100 89 62 48 305 302 321 237 285 296 300 308 325 334 331
163 158 162 175 178 198 194 179 156 157 171 221 288 291 249 239 245 183 164 168 211 264 301 30 33 20 31 32 38 108 169 192 254 286 295 265 287 326 316 305 327 338 344
Height
1552 1552 1552 1552 1553 1553 1553 1553 1553 1553 1553 1553 1553 1553 1552 1552 1551 1551 1550 1549 1548 1547 1546 1544 1543 1542 1541 1540 1539 1538 1537 1535 1534 1533 1532 1531 1531 1531 1531 1531 1531 1531 1530
1553 1553 1553 1554 1554 1554 1554 1554 1554 1554 1554 1554 1554 1554 1554 1553 1553 1552 1551 1550 1550 1548 1547 1546 1545 1544 1542 1541 1539 1538 1537 1535 1533 1532 1530 1530 1530 1530 1530 1530 1530 1530 1530
1554 1554 1554 1554 1555 1555 1555 1555 1555 1555 1555 1555 1555 1555 1555 1554 1554 1554 1553 1552 1551 1550 1549 1548 1546 1545 1543 1542 1540 1539 1537 1535 1533 1530 1528 1527 1527 1528 1528 1529 1529 1529 1529
1555 1555 1555 1555 1556 1556 1556 1556 1555 1555 1556 1556 1556 1556 1556 1556 1555 1555 1554 1553 1552 1551 1550 1549 1547 1546 1544 1543 1541 1539 1537 1535 1532 1528 1525 1524 1525 1526 1527 1528 1528 1528 1529
1556 1556 1556 1556 1556 1556 1556 1556 1556 1556 1556 1557 1557 1557 1557 1557 1556 1556 1555 1555 1554 1553 1551 1550 1549 1547 1546 1544 1542 1540 1537 1535 1532 1527 1524 1523 1523 1525 1526 1527 1528 1528 1528
1556 1556 1556 1556 1556 1556 1556 1556 1557 1557 1557 1557 1557 1557 1558 1558 1557 1557 1556 1556 1555 1554 1553 1552 1550 1549 1547 1545 1543 1541 1538 1536 1532 1528 1525 1523 1523 1524 1525 1526 1527 1528 1528
1556 1556 1556 1556 1557 1557 1557 1557 1557 1557 1557 1558 1558 1558 1558 1558 1558 1558 1557 1557 1556 1555 1554 1553 1551 1550 1548 1546 1544 1541 1539 1537 1534 1531 1527 1525 1524 1524 1524 1525 1526 1527 1528
1556 1557 1557 1557 1557 1557 1557 1557 1557 1558 1558 1558 1558 1558 1559 1560 1559 1559 1558 1557 1557 1556 1555 1553 1552 1551 1549 1547 1545 1542 1540 1538 1535 1532 1530 1527 1525 1524 1524 1525 1526 1527 1527
1556 1557 1557 1557 1557 1557 1557 1557 1558 1558 1558 1558 1558 1559 1559 1559 1559 1559 1558 1558 1557 1556 1555 1554 1553 1551 1550 1548 1546 1543 1541 1538 1536 1533 1530 1528 1526 1525 1525 1526 1526 1527 1528
1556 1556 1557 1557 1557 1557 1557 1557 1558 1558 1558 1558 1558 1558 1559 1559 1559 1559 1559 1558 1558 1557 1556 1554 1553 1552 1550 1549 1547 1544 1542 1539 1537 1533 1530 1528 1527 1526 1526 1527 1527 1527 1528
1556 1556 1556 1556 1557 1557 1557 1557 1557 1558 1558 1558 1558 1558 1558 1558 1558 1558 1558 1558 1558 1557 1556 1555 1554 1552 1551 1549 1547 1545 1543 1540 1538 1534 1531 1529 1528 1528 1528 1527 1528 1528 1528
1555 1555 1555 1556 1556 1556 1556 1557 1557 1557 1558 1558 1558 1558 1558 1558 1557 1557 1557 1557 1557 1557 1556 1555 1554 1553 1551 1550 1548 1546 1544 1542 1539 1536 1532 1530 1530 1529 1529 1529 1528 1528 1528
1554 1555 1555 1555 1555 1556 1556 1556 1557 1557 1557 1557 1557 1557 1557 1557 1557 1557 1556 1556 1556 1556 1555 1555 1554 1553 1552 1550 1549 1547 1545 1543 1540 1537 1535 1533 1532 1531 1530 1530 1529 1529 1529
1553 1554 1554 1554 1555 1555 1556 1556 1556 1556 1556 1556 1556 1556 1556 1556 1556 1556 1555 1555 1554 1555 1554 1554 1553 1552 1551 1550 1549 1547 1545 1543 1541 1539 1537 1535 1533 1532 1531 1531 1530 1529 1528
1552 1553 1553 1554 1554 1554 1555 1555 1555 1555 1555 1555 1555 1555 1555 1555 1555 1554 1554 1554 1554 1553 1553 1552 1552 1551 1550 1550 1548 1547 1545 1544 1542 1540 1538 1536 1535 1533 1532 1531 1530 1529 1528
1551 1551 1552 1552 1553 1553 1553 1553 1554 1554 1554 1554 1554 1554 1554 1553 1553 1553 1553 1552 1552 1552 1551 1551 1551 1550 1549 1549 1547 1546 1545 1543 1542 1540 1539 1537 1535 1534 1532 1531 1530 1528 1527
1549 1550 1550 1551 1551 1552 1552 1552 1552 1552 1552 1552 1552 1552 1552 1552 1552 1552 1551 1551 1550 1550 1549 1549 1549 1549 1548 1547 1546 1545 1544 1542 1541 1540 1538 1537 1535 1534 1532 1531 1529 1528 1526
1548 1548 1549 1549 1550 1550 1550 1551 1551 1551 1551 1551 1551 1551 1551 1551 1550 1550 1550 1549 1549 1549 1548 1547 1547 1547 1546 1546 1545 1543 1542 1541 1540 1539 1537 1536 1534 1533 1531 1530 1528 1527 1525
1546 1547 1547 1548 1548 1548 1549 1549 1549 1549 1549 1549 1549 1549 1549 1549 1549 1548 1548 1548 1547 1547 1547 1546 1545 1545 1544 1544 1542 1541 1540 1539 1538 1537 1536 1534 1533 1531 1530 1528 1527 1525 1523
1544 1545 1545 1546 1546 1547 1547 1547 1547 1547 1548 1547 1547 1547 1547 1547 1547 1547 1546 1546 1546 1545 1545 1544 1543 1543 1542 1541 1540 1539 1538 1537 1536 1535 1534 1532 1531 1529 1528 1526 1525 1523 1521
1543 1543 1543 1544 1544 1545 1545 1545 1546 1546 1546 1546 1546 1545 1545 1545 1545 1545 1544 1544 1543 1543 1542 1541 1541 1540 1539 1538 1537 1536 1535 1534 1533 1532 1531 1530 1528 1526 1525 1523 1522 1520 1518
1541 1541 1541 1542 1542 1543 1543 1543 1544 1544 1544 1543 1543 1543 1543 1543 1543 1542 1542 1542 1541 1540 1540 1539 1538 1537 1536 1536 1535 1534 1533 1531 1529 1530 1528 1526 1525 1523 1522 1520 1519 1517 1515
1539 1539 1540 1540 1540 1541 1541 1541 1541 1542 1541 1541 1541 1541 1541 1540 1540 1540 1539 1539 1538 1538 1538 1537 1535 1534 1534 1533 1532 1531 1530 1528 1527 1526 1525 1522 1522 1520 1519 1517 1515 1513 1512
1537 1537 1538 1538 1538 1539 1539 1540 1539 1539 1539 1539 1539 1538 1538 1538 1537 1537 1536 1536 1535 1535 1534 1533 1533 1532 1531 1530 1529 1528 1526 1525 1524 1523 1522 1519 1518 1516 1515 1513 1511 1509 1508
1535 1535 1536 1536 1536 1537 1537 1537 1537 1537 1536 1536 1536 1536 1535 1535 1534 1534 1533 1532 1532 1531 1531 1530 1529 1528 1528 1527 1526 1524 1523 1521 1519 1518 1518 1516 1513 1512 1510 1509 1507 1506 1504
1533 1533 1534 1534 1534 1534 1535 1535 1534 1534 1533 1533 1533 1533 1532 1532 1531 1531 1530 1529 1528 1527 1527 1526 1525 1524 1523 1522 1522 1520 1519 1517 1515 1514 1513 1512 1510 1508 1505 1504 1503 1501 1499